This is the latest recevied weather packets stored in our database for station/object EW1958. If no packets are shown the sender has not sent any weather packets the latest 10 day(s).
| Time | Temp. | Humidity | Pressure | Rain* | Wind** | Luminosity | Snow |
|---|---|---|---|---|---|---|---|
| 1788206729 | 21.11° C | 67% | 1014.1 hPa | 0 mm | - | - | - |
| 1788206559 | 20.56° C | 64% | 1014.1 hPa | 0 mm | - | - | - |
| 1788206129 | 20.56° C | 65% | 1014.2 hPa | 0 mm | - | - | - |
| 1788205830 | 20.56° C | 64% | 1014.3 hPa | 0 mm | - | - | - |
| 1788205526 | 20.56° C | 68% | 1014.4 hPa | 0 mm | - | - | - |
| 1788205356 | 20° C | 67% | 1014.4 hPa | 0 mm | - | - | - |
| 1788204926 | 20° C | 68% | 1014.5 hPa | 0 mm | - | - | - |
| 1788204625 | 20° C | 69% | 1014.5 hPa | 0 mm | - | - | - |
| 1788204324 | 19.44° C | 72% | 1014.5 hPa | 0 mm | - | - | - |
| 1788204026 | 19.44° C | 71% | 1014.6 hPa | 0 mm | - | - | - |
| 1788203851 | 19.44° C | 69% | 1014.7 hPa | 0 mm | - | - | - |
| 1788203426 | 18.89° C | 69% | 1014.8 hPa | 0 mm | - | - | - |
| 1788203123 | 18.89° C | 70% | 1014.9 hPa | 0 mm | - | - | - |
| 1788202823 | 18.89° C | 72% | 1014.9 hPa | 0 mm | - | - | - |
| 1788202523 | 18.89° C | 72% | 1015 hPa | 0 mm | - | - | - |
| 1788202223 | 18.89° C | 70% | 1015 hPa | 0 mm | - | - | - |
| 1788201920 | 18.33° C | 72% | 1015 hPa | 0 mm | - | - | - |
| 1788201620 | 18.33° C | 73% | 1015.1 hPa | 0 mm | - | - | - |
| 1788201468 | 18.33° C | 73% | 1015.1 hPa | 0 mm | - | - | - |
| 1788201015 | 17.78° C | 74% | 1015.1 hPa | 0 mm | - | - | - |
| 1788200712 | 17.78° C | 76% | 1015.1 hPa | 0 mm | - | - | - |
| 1788200426 | 17.22° C | 74% | 1015.2 hPa | 0 mm | - | - | - |
| 1788200124 | 16.67° C | 77% | 1015.5 hPa | 0 mm | - | - | - |
| 1788200114 | 17.22° C | 75% | 1015.5 hPa | 0 mm | - | - | - |
| 1788199508 | 16.67° C | 78% | 1015.6 hPa | 0 mm | - | - | - |
* Rain latest hour (hover to see other rain measurements)
** Current wind speed in m/s (hover to see current wind gust speed)